Location: ??????
(55.7522°N, 37.6156°E)
Time: 17:10:44
(UTC+00:00)

Cosmos 1378 Rocket - Pass Details

Date: 14 June 2025
Orbit: 594 x 621 km, 82.5° (Epoch: 12 July)

Event Time Altitude Azimuth Distance (km) Brightness Sun altitude
Exits shadow 23:03:31 11° 200° (SSW) 1,917 5.4 -8.5°
Maximum altitude 23:07:44 70° 284° (WNW) 662 3.7 -8.2°
Drops below altitude 10° 23:12:08 10° 9° (N) 1,989 7.7 -8.0°
Sets 23:14:22 0° 11° (NNE) 2,894 9.0 -7.9°
